Location: DaVinci Observatory
(43.1080°N, 78.6453°W)
Time: 08:17:13
(UTC-04:00)

Vanguard 3 - Visible Passes

Search period start: 22 July 2018 00:00
Search period end: 01 August 2018 00:00
Orbit: 508 x 3264 km, 33.3° (Epoch: 21 July)

Date Brightness Start Highest point End Pass type
(mag) Time Alt. Az. Time Alt. Az. Time Alt. Az.
22 Jul 8.9 21:04:53 10° W 21:16:06 44° SSW 21:22:36 10° SE visible
22 Jul 9.1 23:21:45 10° WSW 23:26:55 18° SW 23:27:41 18° SSW visible
23 Jul 8.9 22:04:42 10° W 22:13:43 32° SSW 22:17:53 17° SSE visible
24 Jul 9.2 23:05:11 10° WSW 23:10:47 18° SW 23:12:40 16° SSW visible
25 Jul 9.2 21:47:42 10° W 21:57:32 32° SSW 22:02:53 14° SSE visible
26 Jul 9.5 22:48:33 10° W 22:54:32 17° SW 22:57:40 14° SSW visible
27 Jul 9.5 21:30:37 10° W 21:41:14 31° SSW 21:47:55 10° SSE visible
28 Jul 9.7 22:31:52 10° W 22:38:10 17° SW 22:42:44 10° S visible
29 Jul 9.7 21:13:28 10° W 21:24:48 31° SW 21:32:04 10° SSE visible
30 Jul 10.0 22:15:11 10° W 22:21:41 16° SW 22:26:40 10° SSW visible
31 Jul 9.9 20:56:16 10° W 21:08:15 30° SW 21:16:07 10° SSE visible
